START_TIME,STEP,MOV.,M34,t_acc.,L5,t_acc.,L18,t_acc.,L14,t_acc.
1986-01-26 15:00:25.980 ,0,0,0.,12.0,0.,12.0,0.,12.0,0.,12.0
1986-01-26 15:00:37.980 ,0,0,0.,12.0,0.,12.0,0.,12.0,1.,12.0
1986-01-26 15:00:49.980 ,1,1,0.,12.0,0.,12.0,0.,12.0,0.,12.0
1986-01-26 15:01:01.980 ,1,1,0.,12.0,0.,12.0,0.,12.0,0.,12.0
1986-01-26 15:01:13.980 ,1,0,0.,12.0,0.,12.0,0.,12.0,0.,12.0
1986-01-26 15:01:25.980 ,1,0,0.,12.0,0.,12.0,0.,12.0,0.,12.0
1986-01-26 15:01:37.980 ,2,1,0.,12.0,0.,12.0,0.,12.0,1.,12.0
1986-01-26 15:01:49.980 ,2,1,0.,12.0,0.,12.0,0.,12.0,0.,12.0
1986-01-26 15:02:01.980 ,2,0,0.,12.0,0.,12.0,0.,12.0,0.,12.0
1986-01-26 15:02:13.980 ,2,0,0.,12.0,0.,12.0,0.,12.0,0.,12.0
1986-01-26 15:02:25.980 ,3,1,0.,12.0,0.,12.0,0.,12.0,0.,12.0
1986-01-26 15:02:37.980 ,3,1,0.,12.0,0.,12.0,0.,12.0,0.,12.0
1986-01-26 15:02:49.980 ,3,0,0.,12.0,0.,12.0,0.,12.0,1.,12.0
1986-01-26 15:03:01.980 ,3,0,0.,12.0,0.,12.0,0.,12.0,0.,12.0
1986-01-26 15:03:13.980 ,4,1,0.,12.0,0.,12.0,0.,12.0,0.,12.0
1986-01-26 15:03:25.980 ,4,1,0.,12.0,0.,12.0,0.,12.0,0.,12.0
1986-01-26 15:03:37.980 ,4,0,0.,12.0,0.,12.0,0.,12.0,1.,12.0
1986-01-26 15:03:49.980 ,4,0,0.,12.0,0.,12.0,0.,12.0,0.,12.0
1986-01-26 15:04:01.980 ,5,1,0.,12.0,0.,12.0,0.,12.0,0.,12.0
1986-01-26 15:04:13.980 ,5,1,0.,12.0,0.,12.0,0.,12.0,0.,12.0
1986-01-26 15:04:25.980 ,5,0,0.,12.0,0.,12.0,0.,12.0,0.,12.0
1986-01-26 15:04:37.980 ,5,0,0.,12.0,0.,12.0,0.,12.0,0.,12.0
1986-01-26 15:04:49.980 ,6,1,0.,12.0,0.,12.0,0.,12.0,0.,12.0
1986-01-26 15:05:01.980 ,6,1,0.,12.0,0.,12.0,0.,12.0,0.,12.0
1986-01-26 15:05:13.980 ,6,0,0.,12.0,0.,12.0,0.,12.0,1.,12.0
1986-01-26 15:05:25.980 ,6,0,0.,12.0,0.,12.0,0.,12.0,0.,12.0
1986-01-26 15:05:37.980 ,7,1,0.,12.0,0.,12.0,0.,12.0,0.,12.0
1986-01-26 15:05:49.980 ,7,1,0.,12.0,0.,12.0,0.,12.0,0.,12.0
1986-01-26 15:06:01.980 ,7,0,0.,12.0,0.,12.0,0.,12.0,1.,12.0
1986-01-26 15:06:13.980 ,7,0,0.,12.0,0.,12.0,0.,12.0,0.,12.0
1986-01-26 15:06:25.980 ,7,1,0.,12.0,0.,12.0,0.,12.0,0.,12.0
1986-01-26 15:06:37.980 ,7,1,0.,12.0,0.,12.0,0.,12.0,0.,12.0
1986-01-26 15:06:49.980 ,7,0,0.,12.0,0.,12.0,0.,12.0,1.,12.0
1986-01-26 15:07:01.980 ,7,0,0.,12.0,0.,12.0,0.,12.0,0.,12.0
1986-01-26 15:07:13.980 ,6,1,0.,12.0,0.,12.0,0.,12.0,0.,12.0
1986-01-26 15:07:25.980 ,6,1,0.,12.0,0.,12.0,0.,12.0,1.,12.0
1986-01-26 15:07:37.980 ,0,0,0.,12.0,0.,12.0,0.,12.0,0.,12.0
1986-01-26 15:07:49.980 ,0,0,,0,,0,,0,,0
1986-01-26 15:12:12.780 ,0,0,,0,,0,,0,,0
1986-01-26 15:12:24.780 ,0,0,0.,12.0,0.,12.0,0.,12.0,0.,12.0
1986-01-26 15:12:25.980 ,0,0,0.,12.0,0.,12.0,0.,12.0,0.,12.0
1986-01-26 15:12:37.980 ,0,0,0.,12.0,0.,12.0,0.,12.0,0.,12.0
1986-01-26 15:12:49.980 ,0,1,0.,12.0,0.,12.0,0.,12.0,0.,12.0
1986-01-26 15:13:01.980 ,0,1,0.,12.0,0.,12.0,0.,12.0,0.,12.0
1986-01-26 15:13:13.980 ,0,0,0.,12.0,0.,12.0,0.,12.0,0.,12.0
1986-01-26 15:13:25.980 ,0,0,0.,12.0,0.,12.0,0.,12.0,0.,12.0
1986-01-26 15:13:37.980 ,1,1,0.,12.0,0.,12.0,0.,12.0,1.,12.0
1986-01-26 15:13:49.980 ,1,1,0.,12.0,0.,12.0,0.,12.0,0.,12.0
1986-01-26 15:14:01.980 ,1,0,0.,12.0,0.,12.0,0.,12.0,0.,12.0
1986-01-26 15:14:13.980 ,1,0,0.,12.0,0.,12.0,0.,12.0,0.,12.0
1986-01-26 15:14:25.980 ,2,1,0.,12.0,0.,12.0,0.,12.0,0.,12.0
1986-01-26 15:14:37.980 ,2,1,0.,12.0,0.,12.0,0.,12.0,0.,12.0
1986-01-26 15:14:49.980 ,2,0,0.,12.0,0.,12.0,0.,12.0,0.,12.0
1986-01-26 15:15:01.980 ,2,0,0.,12.0,0.,12.0,0.,12.0,0.,12.0
1986-01-26 15:15:13.980 ,3,1,0.,12.0,0.,12.0,0.,12.0,1.,12.0
1986-01-26 15:15:25.980 ,3,1,0.,12.0,0.,12.0,0.,12.0,0.,12.0
1986-01-26 15:15:37.980 ,3,0,0.,12.0,0.,12.0,0.,12.0,0.,12.0
1986-01-26 15:15:49.980 ,3,0,0.,12.0,0.,12.0,0.,12.0,1.,12.0
1986-01-26 15:16:01.980 ,4,1,0.,12.0,0.,12.0,0.,12.0,0.,12.0
1986-01-26 15:16:13.980 ,4,1,0.,12.0,0.,12.0,0.,12.0,0.,12.0
1986-01-26 15:16:25.980 ,4,0,0.,12.0,0.,12.0,0.,12.0,0.,12.0
1986-01-26 15:16:37.980 ,4,0,0.,12.0,0.,12.0,0.,12.0,1.,12.0
1986-01-26 15:16:49.980 ,0,0,0.,12.0,0.,12.0,0.,12.0,0.,12.0
1986-01-26 15:17:01.980 ,0,0,0.,12.0,0.,12.0,0.,12.0,1.,12.0
1986-01-26 15:17:13.980 ,0,0,,0,,0,,0,,0
1986-01-26 15:17:25.980 ,0,0,,0,,0,,0,,0
1986-01-26 15:17:13.980 ,5,0,0.,12.0,0.,12.0,0.,12.0,0.,12.0
1986-01-26 15:17:25.980 ,5,0,0.,12.0,0.,12.0,0.,12.0,0.,12.0
1986-01-26 15:17:37.980 ,6,1,0.,12.0,0.,12.0,0.,12.0,0.,12.0
1986-01-26 15:17:49.980 ,6,1,0.,12.0,0.,12.0,0.,12.0,0.,12.0
1986-01-26 15:18:01.980 ,6,0,0.,12.0,0.,12.0,0.,12.0,0.,12.0
1986-01-26 15:18:13.980 ,6,0,0.,12.0,0.,12.0,0.,12.0,0.,12.0
1986-01-26 15:18:25.980 ,7,1,0.,12.0,0.,12.0,0.,12.0,0.,12.0
1986-01-26 15:18:37.980 ,7,1,0.,12.0,0.,12.0,0.,12.0,0.,12.0
1986-01-26 15:18:49.980 ,7,0,0.,12.0,0.,12.0,0.,12.0,1.,12.0
1986-01-26 15:19:01.980 ,7,0,0.,12.0,0.,12.0,0.,12.0,2.,12.0
1986-01-26 15:19:13.980 ,7,1,0.,12.0,0.,12.0,0.,12.0,0.,12.0
1986-01-26 15:19:25.980 ,7,1,0.,12.0,0.,12.0,0.,12.0,0.,12.0
1986-01-26 15:19:37.980 ,7,0,0.,12.0,0.,12.0,0.,12.0,0.,12.0
1986-01-26 15:19:49.980 ,7,0,0.,12.0,0.,12.0,0.,12.0,0.,12.0
1986-01-26 15:20:01.980 ,6,1,0.,12.0,0.,12.0,0.,12.0,0.,12.0
1986-01-26 15:20:13.980 ,6,1,0.,12.0,0.,12.0,0.,12.0,0.,12.0
1986-01-26 15:20:25.980 ,6,0,0.,12.0,0.,12.0,0.,12.0,0.,12.0
1986-01-26 15:20:37.980 ,6,0,0.,12.0,0.,12.0,0.,12.0,0.,12.0
1986-01-26 15:20:49.980 ,5,1,0.,12.0,0.,12.0,0.,12.0,0.,12.0
1986-01-26 15:21:01.980 ,5,1,0.,12.0,0.,12.0,0.,12.0,0.,12.0
1986-01-26 15:21:13.980 ,5,0,0.,12.0,0.,12.0,0.,12.0,0.,12.0
1986-01-26 15:21:25.980 ,5,0,0.,12.0,0.,12.0,0.,12.0,0.,12.0
1986-01-26 15:21:37.980 ,4,1,0.,12.0,0.,12.0,0.,12.0,0.,12.0
1986-01-26 15:21:49.980 ,4,1,0.,12.0,0.,12.0,0.,12.0,0.,12.0
1986-01-26 15:22:01.980 ,4,0,0.,12.0,0.,12.0,0.,12.0,0.,12.0
1986-01-26 15:22:13.980 ,4,0,0.,12.0,0.,12.0,0.,12.0,1.,12.0
1986-01-26 15:22:25.980 ,3,1,0.,12.0,0.,12.0,0.,12.0,0.,12.0
1986-01-26 15:22:37.980 ,3,1,0.,12.0,0.,12.0,0.,12.0,1.,12.0
1986-01-26 15:22:49.980 ,3,0,0.,12.0,0.,12.0,0.,12.0,0.,12.0
1986-01-26 15:23:01.980 ,3,0,0.,12.0,0.,12.0,0.,12.0,0.,12.0
1986-01-26 15:23:13.980 ,2,1,0.,12.0,0.,12.0,0.,12.0,0.,12.0
1986-01-26 15:23:25.980 ,2,1,0.,12.0,0.,12.0,0.,12.0,0.,12.0
1986-01-26 15:23:37.980 ,2,0,0.,12.0,0.,12.0,0.,12.0,0.,12.0
1986-01-26 15:23:49.980 ,2,0,0.,12.0,0.,12.0,0.,12.0,0.,12.0
1986-01-26 15:24:01.980 ,1,1,0.,12.0,0.,12.0,0.,12.0,0.,12.0
1986-01-26 15:24:13.980 ,1,1,0.,12.0,0.,12.0,0.,12.0,0.,12.0
1986-01-26 15:24:25.980 ,1,0,0.,12.0,0.,12.0,0.,12.0,0.,12.0
1986-01-26 15:24:37.980 ,1,0,0.,12.0,0.,12.0,0.,12.0,0.,12.0
1986-01-26 15:24:49.980 ,0,1,0.,12.0,0.,12.0,0.,12.0,0.,12.0
1986-01-26 15:25:01.980 ,0,1,0.,12.0,0.,12.0,0.,12.0,0.,12.0
1986-01-26 15:25:13.980 ,0,0,0.,12.0,0.,12.0,0.,12.0,0.,12.0
1986-01-26 15:25:25.980 ,0,0,0.,12.0,0.,12.0,0.,12.0,1.,12.0
1986-01-26 15:25:37.980 ,0,1,0.,12.0,0.,12.0,0.,12.0,1.,12.0
1986-01-26 15:25:49.980 ,0,1,0.,12.0,0.,12.0,0.,12.0,0.,12.0
1986-01-26 15:26:01.980 ,0,0,0.,12.0,0.,12.0,0.,12.0,0.,12.0
1986-01-26 15:26:13.980 ,0,0,0.,12.0,0.,12.0,0.,12.0,0.,12.0
1986-01-26 15:26:25.980 ,1,1,0.,12.0,0.,12.0,0.,12.0,1.,12.0
1986-01-26 15:26:37.980 ,1,1,0.,12.0,0.,12.0,0.,12.0,0.,12.0
1986-01-26 15:26:49.980 ,1,0,0.,12.0,0.,12.0,0.,12.0,1.,12.0
1986-01-26 15:27:01.980 ,1,0,0.,12.0,0.,12.0,0.,12.0,0.,12.0
1986-01-26 15:27:13.980 ,2,1,0.,12.0,0.,12.0,0.,12.0,0.,12.0
1986-01-26 15:27:25.980 ,2,1,0.,12.0,0.,12.0,0.,12.0,0.,12.0
1986-01-26 15:27:37.980 ,2,0,0.,12.0,0.,12.0,0.,12.0,0.,12.0
1986-01-26 15:27:49.980 ,2,0,0.,12.0,0.,12.0,0.,12.0,0.,12.0
1986-01-26 15:28:01.980 ,3,1,0.,12.0,0.,12.0,0.,12.0,0.,12.0
1986-01-26 15:28:13.980 ,3,1,0.,12.0,0.,12.0,0.,12.0,0.,12.0
1986-01-26 15:28:25.980 ,3,0,0.,12.0,0.,12.0,0.,12.0,0.,12.0
1986-01-26 15:28:37.980 ,3,0,0.,12.0,0.,12.0,0.,12.0,0.,12.0
1986-01-26 15:28:49.980 ,4,1,0.,12.0,0.,12.0,0.,12.0,0.,12.0
1986-01-26 15:29:01.980 ,4,1,0.,12.0,0.,12.0,0.,12.0,0.,12.0
1986-01-26 15:29:13.980 ,4,0,0.,12.0,0.,12.0,0.,12.0,0.,12.0
1986-01-26 15:29:25.980 ,4,0,0.,12.0,0.,12.0,0.,12.0,0.,12.0
1986-01-26 15:29:37.980 ,5,1,0.,12.0,0.,12.0,0.,12.0,0.,12.0
1986-01-26 15:29:49.980 ,5,1,0.,12.0,0.,12.0,0.,12.0,0.,12.0
1986-01-26 15:30:01.980 ,5,0,0.,12.0,0.,12.0,0.,12.0,1.,12.0
1986-01-26 15:30:13.980 ,5,0,0.,12.0,0.,12.0,0.,12.0,0.,12.0
1986-01-26 15:30:25.980 ,6,1,0.,12.0,0.,12.0,0.,12.0,0.,12.0
1986-01-26 15:30:37.980 ,6,1,0.,12.0,0.,12.0,0.,12.0,1.,12.0
1986-01-26 15:30:49.980 ,6,0,0.,12.0,0.,12.0,0.,12.0,0.,12.0
1986-01-26 15:31:01.980 ,6,0,0.,12.0,0.,12.0,0.,12.0,0.,12.0
1986-01-26 15:31:13.980 ,7,1,0.,12.0,0.,12.0,0.,12.0,0.,12.0
1986-01-26 15:31:25.980 ,7,1,0.,12.0,0.,12.0,0.,12.0,1.,12.0
1986-01-26 15:31:37.980 ,7,0,0.,12.0,0.,12.0,0.,12.0,0.,12.0
1986-01-26 15:31:49.980 ,7,0,0.,12.0,0.,12.0,0.,12.0,0.,12.0
1986-01-26 15:32:01.980 ,7,1,0.,12.0,0.,12.0,0.,12.0,1.,12.0
1986-01-26 15:32:13.980 ,7,1,0.,12.0,0.,12.0,0.,12.0,0.,12.0
1986-01-26 15:32:25.980 ,7,0,0.,12.0,0.,12.0,0.,12.0,0.,12.0
1986-01-26 15:32:37.980 ,7,0,0.,12.0,0.,12.0,0.,12.0,0.,12.0
1986-01-26 15:32:49.980 ,6,1,0.,12.0,0.,12.0,0.,12.0,0.,12.0
1986-01-26 15:33:01.980 ,6,1,0.,12.0,0.,12.0,0.,12.0,1.,12.0
1986-01-26 15:33:13.980 ,6,0,0.,12.0,0.,12.0,0.,12.0,0.,12.0
1986-01-26 15:33:25.980 ,6,0,0.,12.0,0.,12.0,0.,12.0,2.,12.0
1986-01-26 15:33:37.980 ,5,1,0.,12.0,0.,12.0,0.,12.0,0.,12.0
1986-01-26 15:33:49.980 ,5,1,0.,12.0,0.,12.0,0.,12.0,0.,12.0
1986-01-26 15:34:01.980 ,5,0,0.,12.0,0.,12.0,0.,12.0,0.,12.0
1986-01-26 15:34:13.980 ,5,0,0.,12.0,0.,12.0,0.,12.0,0.,12.0
1986-01-26 15:34:25.980 ,4,1,0.,12.0,0.,12.0,0.,12.0,0.,12.0
1986-01-26 15:34:37.980 ,4,1,0.,12.0,0.,12.0,0.,12.0,0.,12.0
1986-01-26 15:34:49.980 ,4,0,0.,12.0,0.,12.0,0.,12.0,0.,12.0
1986-01-26 15:35:01.980 ,4,0,0.,12.0,0.,12.0,0.,12.0,0.,12.0
1986-01-26 15:35:13.980 ,3,1,0.,12.0,0.,12.0,0.,12.0,0.,12.0
1986-01-26 15:35:25.980 ,3,1,0.,12.0,0.,12.0,0.,12.0,0.,12.0
1986-01-26 15:35:37.980 ,3,0,0.,12.0,0.,12.0,0.,12.0,1.,12.0
1986-01-26 15:35:49.980 ,3,0,0.,12.0,0.,12.0,0.,12.0,0.,12.0
1986-01-26 15:36:01.980 ,2,1,0.,12.0,0.,12.0,0.,12.0,0.,12.0
1986-01-26 15:36:13.980 ,2,1,0.,12.0,0.,12.0,0.,12.0,0.,12.0
1986-01-26 15:36:25.980 ,2,0,0.,12.0,0.,12.0,0.,12.0,0.,12.0
1986-01-26 15:36:37.980 ,2,0,0.,12.0,0.,12.0,0.,12.0,0.,12.0
1986-01-26 15:36:49.980 ,1,1,0.,12.0,0.,12.0,0.,12.0,0.,12.0
1986-01-26 15:37:01.980 ,1,1,0.,12.0,0.,12.0,0.,12.0,0.,12.0
1986-01-26 15:37:13.980 ,1,0,0.,12.0,0.,12.0,0.,12.0,0.,12.0
1986-01-26 15:37:25.980 ,1,0,0.,12.0,0.,12.0,0.,12.0,0.,12.0
1986-01-26 15:37:37.980 ,0,1,0.,12.0,0.,12.0,0.,12.0,0.,12.0
1986-01-26 15:37:49.980 ,0,1,0.,12.0,0.,12.0,0.,12.0,0.,12.0
1986-01-26 15:38:01.980 ,0,0,0.,12.0,0.,12.0,0.,12.0,1.,12.0
1986-01-26 15:38:13.980 ,0,0,0.,12.0,0.,12.0,0.,12.0,1.,12.0
1986-01-26 15:38:25.980 ,0,1,0.,12.0,0.,12.0,0.,12.0,0.,12.0
1986-01-26 15:38:37.980 ,0,1,0.,12.0,0.,12.0,0.,12.0,0.,12.0
1986-01-26 15:38:49.980 ,0,0,0.,12.0,0.,12.0,0.,12.0,0.,12.0
1986-01-26 15:39:01.980 ,0,0,0.,12.0,0.,12.0,0.,12.0,0.,12.0
1986-01-26 15:39:13.980 ,1,1,0.,12.0,0.,12.0,0.,12.0,0.,12.0
1986-01-26 15:39:25.980 ,1,1,0.,12.0,0.,12.0,0.,12.0,1.,12.0
1986-01-26 15:39:37.980 ,1,0,0.,12.0,0.,12.0,0.,12.0,0.,12.0
1986-01-26 15:39:49.980 ,1,0,0.,12.0,0.,12.0,0.,12.0,0.,12.0
1986-01-26 15:40:01.980 ,2,1,0.,12.0,0.,12.0,0.,12.0,0.,12.0
1986-01-26 15:40:13.980 ,2,1,0.,12.0,0.,12.0,0.,12.0,0.,12.0
1986-01-26 15:40:25.980 ,2,0,0.,12.0,0.,12.0,0.,12.0,1.,12.0
1986-01-26 15:40:37.980 ,2,0,0.,12.0,0.,12.0,0.,12.0,0.,12.0
1986-01-26 15:40:49.980 ,3,1,0.,12.0,0.,12.0,0.,12.0,0.,12.0
1986-01-26 15:41:01.980 ,3,1,0.,12.0,0.,12.0,0.,12.0,0.,12.0
1986-01-26 15:41:13.980 ,3,0,0.,12.0,0.,12.0,0.,12.0,0.,12.0
1986-01-26 15:41:25.980 ,3,0,0.,12.0,0.,12.0,0.,12.0,1.,12.0
1986-01-26 15:41:37.980 ,4,1,0.,12.0,0.,12.0,0.,12.0,0.,12.0
1986-01-26 15:41:49.980 ,4,1,0.,12.0,0.,12.0,0.,12.0,1.,12.0
1986-01-26 15:42:01.980 ,4,0,0.,12.0,0.,12.0,0.,12.0,1.,12.0
1986-01-26 15:42:13.980 ,4,0,,0,,0,,0,,0
1986-01-26 15:42:25.980 ,5,1,0.,12.0,0.,12.0,0.,12.0,0.,12.0
1986-01-26 15:42:37.980 ,5,1,0.,12.0,0.,12.0,0.,12.0,0.,12.0
1986-01-26 15:42:49.980 ,5,0,0.,12.0,0.,12.0,0.,12.0,0.,12.0
1986-01-26 15:43:01.980 ,5,0,0.,12.0,0.,12.0,0.,12.0,0.,12.0
1986-01-26 15:43:13.980 ,6,1,0.,12.0,0.,12.0,0.,12.0,0.,12.0
1986-01-26 15:43:25.980 ,6,1,0.,12.0,0.,12.0,0.,12.0,1.,12.0
1986-01-26 15:43:37.980 ,6,0,0.,12.0,0.,12.0,0.,12.0,0.,12.0
1986-01-26 15:43:49.980 ,6,0,0.,12.0,0.,12.0,0.,12.0,0.,12.0
1986-01-26 15:44:01.980 ,7,1,0.,12.0,0.,12.0,0.,12.0,0.,12.0
1986-01-26 15:44:13.980 ,7,1,0.,12.0,0.,12.0,0.,12.0,0.,12.0
1986-01-26 15:44:25.980 ,7,0,0.,12.0,0.,12.0,0.,12.0,1.,12.0
1986-01-26 15:44:37.980 ,7,0,0.,12.0,0.,12.0,0.,12.0,0.,12.0
1986-01-26 15:44:49.980 ,7,1,0.,12.0,0.,12.0,0.,12.0,0.,12.0
1986-01-26 15:45:01.980 ,7,1,0.,12.0,0.,12.0,0.,12.0,0.,12.0
1986-01-26 15:45:13.980 ,7,0,0.,12.0,0.,12.0,0.,12.0,0.,12.0
1986-01-26 15:45:25.980 ,7,0,0.,12.0,0.,12.0,0.,12.0,0.,12.0
1986-01-26 15:45:37.980 ,6,1,0.,12.0,0.,12.0,0.,12.0,0.,12.0
1986-01-26 15:45:49.980 ,6,1,0.,12.0,0.,12.0,0.,12.0,0.,12.0
1986-01-26 15:46:01.980 ,0,0,0.,12.0,0.,12.0,0.,12.0,0.,12.0
1986-01-26 15:46:13.980 ,0,0,0.,12.0,0.,12.0,0.,12.0,0.,12.0
1986-01-26 15:46:22.380 ,0,0,,0,,0,,0,,0
1986-01-26 15:46:34.380 ,0,0,,0,,0,,0,,0
1986-01-26 15:46:24.180 ,0,0,,0,,0,,0,,0
1986-01-26 15:46:36.180 ,0,0,,0,,0,,0,,0
1986-01-26 15:46:25.980 ,5,1,0.,12.0,0.,12.0,0.,12.0,0.,12.0
1986-01-26 15:46:37.980 ,5,1,0.,12.0,0.,12.0,0.,12.0,0.,12.0
1986-01-26 15:46:49.980 ,0,0,0.,12.0,0.,12.0,0.,12.0,0.,12.0
1986-01-26 15:47:01.980 ,0,0,,0,,0,,0,,0
1986-01-26 15:46:59.580 ,0,0,,0,,0,,0,,0
1986-01-26 15:47:11.580 ,0,0,0.,12.0,0.,12.0,0.,12.0,1.,12.0
1986-01-26 15:47:13.980 ,4,1,0.,12.0,0.,12.0,0.,12.0,0.,12.0
1986-01-26 15:47:25.980 ,4,1,0.,12.0,1.,12.0,0.,12.0,0.,12.0
1986-01-26 15:47:37.980 ,4,0,0.,12.0,0.,12.0,0.,12.0,0.,12.0
1986-01-26 15:47:49.980 ,4,0,0.,12.0,0.,12.0,0.,12.0,1.,12.0
1986-01-26 15:48:01.980 ,3,1,0.,12.0,0.,12.0,0.,12.0,0.,12.0
1986-01-26 15:48:13.980 ,3,1,0.,12.0,0.,12.0,0.,12.0,0.,12.0
1986-01-26 15:48:25.980 ,3,0,0.,12.0,0.,12.0,0.,12.0,0.,12.0
1986-01-26 15:48:37.980 ,3,0,0.,12.0,0.,12.0,0.,12.0,0.,12.0
1986-01-26 15:48:49.980 ,2,1,0.,12.0,0.,12.0,0.,12.0,1.,12.0
1986-01-26 15:49:01.980 ,2,1,0.,12.0,0.,12.0,0.,12.0,1.,12.0
1986-01-26 15:49:13.980 ,2,0,0.,12.0,0.,12.0,0.,12.0,1.,12.0
1986-01-26 15:49:25.980 ,2,0,0.,12.0,0.,12.0,0.,12.0,0.,12.0
1986-01-26 15:49:37.980 ,1,1,0.,12.0,0.,12.0,0.,12.0,0.,12.0
1986-01-26 15:49:49.980 ,1,1,0.,12.0,0.,12.0,0.,12.0,0.,12.0
1986-01-26 15:50:01.980 ,1,0,0.,12.0,0.,12.0,0.,12.0,0.,12.0
1986-01-26 15:50:13.980 ,1,0,0.,12.0,0.,12.0,0.,12.0,0.,12.0
1986-01-26 15:50:25.980 ,0,1,0.,12.0,0.,12.0,0.,12.0,0.,12.0
1986-01-26 15:50:37.980 ,0,1,0.,12.0,0.,12.0,0.,12.0,0.,12.0
1986-01-26 15:50:49.980 ,0,0,0.,12.0,0.,12.0,0.,12.0,0.,12.0
1986-01-26 15:51:01.980 ,0,0,0.,12.0,0.,12.0,0.,12.0,0.,12.0
1986-01-26 15:51:13.980 ,0,1,0.,12.0,0.,12.0,0.,12.0,1.,12.0
1986-01-26 15:51:25.980 ,0,1,0.,12.0,0.,12.0,0.,12.0,0.,12.0
1986-01-26 15:51:37.980 ,0,0,0.,12.0,0.,12.0,0.,12.0,0.,12.0
1986-01-26 15:51:49.980 ,0,0,0.,12.0,0.,12.0,0.,12.0,0.,12.0
1986-01-26 15:52:01.980 ,1,1,0.,12.0,0.,12.0,0.,12.0,0.,12.0
1986-01-26 15:52:13.980 ,1,1,0.,12.0,0.,12.0,0.,12.0,0.,12.0
1986-01-26 15:52:25.980 ,1,0,0.,12.0,0.,12.0,0.,12.0,0.,12.0
1986-01-26 15:52:37.980 ,1,0,0.,12.0,0.,12.0,0.,12.0,0.,12.0
1986-01-26 15:52:49.980 ,2,1,0.,12.0,0.,12.0,0.,12.0,0.,12.0
1986-01-26 15:53:01.980 ,2,1,0.,12.0,0.,12.0,0.,12.0,0.,12.0
1986-01-26 15:53:13.980 ,2,0,0.,12.0,0.,12.0,0.,12.0,0.,12.0
1986-01-26 15:53:25.980 ,2,0,0.,12.0,0.,12.0,0.,12.0,0.,12.0
1986-01-26 15:53:37.980 ,3,1,0.,12.0,0.,12.0,0.,12.0,0.,12.0
1986-01-26 15:53:49.980 ,3,1,0.,12.0,0.,12.0,0.,12.0,0.,12.0
1986-01-26 15:54:01.980 ,3,0,0.,12.0,0.,12.0,0.,12.0,0.,12.0
1986-01-26 15:54:13.980 ,3,0,0.,12.0,0.,12.0,0.,12.0,0.,12.0
1986-01-26 15:54:25.980 ,4,1,0.,12.0,0.,12.0,0.,12.0,0.,12.0
1986-01-26 15:54:37.980 ,4,1,0.,12.0,0.,12.0,0.,12.0,0.,12.0
1986-01-26 15:54:49.980 ,4,0,0.,12.0,0.,12.0,0.,12.0,0.,12.0
1986-01-26 15:55:01.980 ,4,0,0.,12.0,0.,12.0,0.,12.0,0.,12.0
1986-01-26 15:55:13.980 ,5,1,0.,12.0,0.,12.0,0.,12.0,0.,12.0
1986-01-26 15:55:25.980 ,5,1,0.,12.0,0.,12.0,0.,12.0,0.,12.0
1986-01-26 15:55:37.980 ,5,0,0.,12.0,0.,12.0,0.,12.0,0.,12.0
1986-01-26 15:55:49.980 ,5,0,0.,12.0,0.,12.0,0.,12.0,0.,12.0
1986-01-26 15:56:01.980 ,6,1,0.,12.0,0.,12.0,0.,12.0,1.,12.0
1986-01-26 15:56:13.980 ,6,1,0.,12.0,0.,12.0,0.,12.0,0.,12.0
1986-01-26 15:56:25.980 ,6,0,0.,12.0,0.,12.0,0.,12.0,0.,12.0
1986-01-26 15:56:37.980 ,6,0,0.,12.0,0.,12.0,0.,12.0,0.,12.0
1986-01-26 15:56:49.980 ,7,1,0.,12.0,0.,12.0,0.,12.0,0.,12.0
1986-01-26 15:57:01.980 ,7,1,0.,12.0,0.,12.0,0.,12.0,0.,12.0
1986-01-26 15:57:13.980 ,7,0,0.,12.0,0.,12.0,0.,12.0,0.,12.0
1986-01-26 15:57:25.980 ,7,0,0.,12.0,0.,12.0,0.,12.0,0.,12.0
1986-01-26 15:57:37.980 ,7,1,0.,12.0,0.,12.0,0.,12.0,0.,12.0
1986-01-26 15:57:49.980 ,7,1,0.,12.0,0.,12.0,0.,12.0,0.,12.0
1986-01-26 15:58:01.980 ,7,0,0.,12.0,0.,12.0,0.,12.0,0.,12.0
1986-01-26 15:58:13.980 ,7,0,0.,12.0,0.,12.0,0.,12.0,0.,12.0
1986-01-26 15:58:25.980 ,6,1,0.,12.0,0.,12.0,0.,12.0,0.,12.0
1986-01-26 15:58:37.980 ,6,1,0.,12.0,0.,12.0,0.,12.0,0.,12.0
1986-01-26 15:58:49.980 ,6,0,0.,12.0,0.,12.0,0.,12.0,0.,12.0
1986-01-26 15:59:01.980 ,6,0,0.,12.0,0.,12.0,0.,12.0,1.,12.0
1986-01-26 15:59:13.980 ,5,1,0.,12.0,0.,12.0,0.,12.0,0.,12.0
1986-01-26 15:59:25.980 ,5,1,0.,12.0,0.,12.0,0.,12.0,0.,12.0
1986-01-26 15:59:37.980 ,5,0,0.,12.0,0.,12.0,0.,12.0,1.,12.0
1986-01-26 15:59:49.980 ,5,0,0.,12.0,0.,12.0,0.,12.0,0.,12.0
1986-01-26 16:00:01.980 ,4,1,0.,12.0,0.,12.0,0.,12.0,0.,12.0
1986-01-26 16:00:13.980 ,4,1,0.,12.0,0.,12.0,0.,12.0,0.,12.0
1986-01-26 16:00:25.980 ,4,0,0.,12.0,0.,12.0,0.,12.0,0.,12.0
1986-01-26 16:00:37.980 ,4,0,0.,12.0,0.,12.0,0.,12.0,0.,12.0
1986-01-26 16:00:49.980 ,3,1,0.,12.0,0.,12.0,0.,12.0,0.,12.0
1986-01-26 16:01:01.980 ,3,1,0.,12.0,0.,12.0,0.,12.0,0.,12.0
1986-01-26 16:01:13.980 ,3,0,0.,12.0,0.,12.0,0.,12.0,0.,12.0
1986-01-26 16:01:25.980 ,3,0,0.,12.0,0.,12.0,0.,12.0,0.,12.0
1986-01-26 16:01:37.980 ,2,1,0.,12.0,0.,12.0,0.,12.0,0.,12.0
1986-01-26 16:01:49.980 ,2,1,0.,12.0,0.,12.0,0.,12.0,0.,12.0
1986-01-26 16:02:01.980 ,2,0,0.,12.0,0.,12.0,0.,12.0,1.,12.0
1986-01-26 16:02:13.980 ,2,0,0.,12.0,0.,12.0,0.,12.0,1.,12.0
1986-01-26 16:02:25.980 ,1,1,0.,12.0,0.,12.0,0.,12.0,0.,12.0
1986-01-26 16:02:37.980 ,1,1,0.,12.0,0.,12.0,0.,12.0,0.,12.0
1986-01-26 16:02:49.980 ,1,0,0.,12.0,0.,12.0,0.,12.0,0.,12.0
1986-01-26 16:03:01.980 ,1,0,0.,12.0,0.,12.0,0.,12.0,0.,12.0
1986-01-26 16:03:13.980 ,0,1,0.,12.0,0.,12.0,0.,12.0,0.,12.0
1986-01-26 16:03:25.980 ,0,1,0.,12.0,0.,12.0,0.,12.0,0.,12.0
1986-01-26 16:03:37.980 ,0,0,0.,12.0,0.,12.0,0.,12.0,0.,12.0
1986-01-26 16:03:49.980 ,0,0,0.,12.0,0.,12.0,0.,12.0,0.,12.0
1986-01-26 16:04:01.980 ,0,1,0.,12.0,0.,12.0,0.,12.0,1.,12.0
1986-01-26 16:04:13.980 ,0,1,0.,12.0,0.,12.0,0.,12.0,0.,12.0
1986-01-26 16:04:25.980 ,0,0,0.,12.0,0.,12.0,0.,12.0,0.,12.0
1986-01-26 16:04:37.980 ,0,0,0.,12.0,0.,12.0,0.,12.0,0.,12.0
1986-01-26 16:04:49.980 ,1,1,0.,12.0,0.,12.0,0.,12.0,0.,12.0
1986-01-26 16:05:01.980 ,1,1,0.,12.0,0.,12.0,0.,12.0,0.,12.0
1986-01-26 16:05:13.980 ,1,0,0.,12.0,0.,12.0,0.,12.0,0.,12.0
1986-01-26 16:05:25.980 ,1,0,0.,12.0,0.,12.0,0.,12.0,1.,12.0
1986-01-26 16:05:37.980 ,2,1,0.,12.0,0.,12.0,0.,12.0,0.,12.0
1986-01-26 16:05:49.980 ,2,1,0.,12.0,0.,12.0,0.,12.0,0.,12.0
1986-01-26 16:06:01.980 ,2,0,0.,12.0,0.,12.0,0.,12.0,0.,12.0
1986-01-26 16:06:13.980 ,2,0,0.,12.0,0.,12.0,0.,12.0,0.,12.0
1986-01-26 16:06:25.980 ,3,1,0.,12.0,0.,12.0,0.,12.0,0.,12.0
1986-01-26 16:06:37.980 ,3,1,0.,12.0,0.,12.0,0.,12.0,0.,12.0
1986-01-26 16:06:49.980 ,3,0,0.,12.0,0.,12.0,0.,12.0,0.,12.0
1986-01-26 16:07:01.980 ,3,0,0.,12.0,0.,12.0,0.,12.0,0.,12.0
1986-01-26 16:07:13.980 ,4,1,0.,12.0,0.,12.0,0.,12.0,0.,12.0
1986-01-26 16:07:25.980 ,4,1,0.,12.0,0.,12.0,0.,12.0,0.,12.0
1986-01-26 16:07:37.980 ,4,0,0.,12.0,0.,12.0,0.,12.0,0.,12.0
1986-01-26 16:07:49.980 ,4,0,0.,12.0,0.,12.0,0.,12.0,0.,12.0
1986-01-26 16:08:01.980 ,5,1,0.,12.0,0.,12.0,0.,12.0,0.,12.0
1986-01-26 16:08:13.980 ,5,1,0.,12.0,0.,12.0,0.,12.0,0.,12.0
1986-01-26 16:08:25.980 ,5,0,0.,12.0,0.,12.0,0.,12.0,0.,12.0
1986-01-26 16:08:37.980 ,5,0,0.,12.0,0.,12.0,0.,12.0,0.,12.0
1986-01-26 16:08:49.980 ,6,1,0.,12.0,0.,12.0,0.,12.0,0.,12.0
1986-01-26 16:09:01.980 ,6,1,0.,12.0,0.,12.0,0.,12.0,1.,12.0
1986-01-26 16:09:13.980 ,6,0,0.,12.0,0.,12.0,0.,12.0,0.,12.0
1986-01-26 16:09:25.980 ,6,0,0.,12.0,0.,12.0,0.,12.0,1.,12.0
1986-01-26 16:09:37.980 ,7,1,0.,12.0,0.,12.0,0.,12.0,0.,12.0
1986-01-26 16:09:49.980 ,7,1,0.,12.0,0.,12.0,0.,12.0,0.,12.0
1986-01-26 16:10:01.980 ,7,0,0.,12.0,0.,12.0,0.,12.0,0.,12.0
1986-01-26 16:10:13.980 ,7,0,0.,12.0,0.,12.0,0.,12.0,0.,12.0
1986-01-26 16:10:25.980 ,7,1,0.,12.0,0.,12.0,0.,12.0,0.,12.0
1986-01-26 16:10:37.980 ,7,1,0.,12.0,0.,12.0,0.,12.0,0.,12.0
1986-01-26 16:10:49.980 ,7,0,0.,12.0,0.,12.0,0.,12.0,0.,12.0
1986-01-26 16:11:01.980 ,7,0,0.,12.0,0.,12.0,0.,12.0,0.,12.0
1986-01-26 16:11:13.980 ,6,1,0.,12.0,0.,12.0,0.,12.0,0.,12.0
1986-01-26 16:11:25.980 ,6,1,0.,12.0,0.,12.0,0.,12.0,0.,12.0
1986-01-26 16:11:37.980 ,6,0,0.,12.0,0.,12.0,0.,12.0,0.,12.0
1986-01-26 16:11:49.980 ,6,0,0.,12.0,0.,12.0,0.,12.0,0.,12.0
1986-01-26 16:12:01.980 ,5,1,0.,12.0,0.,12.0,0.,12.0,0.,12.0
1986-01-26 16:12:13.980 ,5,1,0.,12.0,0.,12.0,0.,12.0,1.,12.0
1986-01-26 16:12:25.980 ,5,0,0.,12.0,0.,12.0,0.,12.0,0.,12.0
1986-01-26 16:12:37.980 ,5,0,0.,12.0,0.,12.0,0.,12.0,0.,12.0
1986-01-26 16:12:49.980 ,4,1,0.,12.0,0.,12.0,0.,12.0,0.,12.0
1986-01-26 16:13:01.980 ,4,1,0.,12.0,0.,12.0,0.,12.0,0.,12.0
1986-01-26 16:13:13.980 ,4,0,0.,12.0,0.,12.0,0.,12.0,0.,12.0
1986-01-26 16:13:25.980 ,4,0,0.,12.0,0.,12.0,0.,12.0,1.,12.0
1986-01-26 16:13:37.980 ,3,1,0.,12.0,0.,12.0,0.,12.0,0.,12.0
1986-01-26 16:13:49.980 ,3,1,0.,12.0,0.,12.0,0.,12.0,0.,12.0
1986-01-26 16:14:01.980 ,3,0,0.,12.0,0.,12.0,0.,12.0,0.,12.0
1986-01-26 16:14:13.980 ,3,0,0.,12.0,0.,12.0,0.,12.0,0.,12.0
1986-01-26 16:14:25.980 ,2,1,0.,12.0,0.,12.0,0.,12.0,0.,12.0
1986-01-26 16:14:37.980 ,2,1,0.,12.0,0.,12.0,0.,12.0,0.,12.0
1986-01-26 16:14:49.980 ,2,0,0.,12.0,0.,12.0,0.,12.0,0.,12.0
1986-01-26 16:15:01.980 ,2,0,0.,12.0,0.,12.0,0.,12.0,0.,12.0
1986-01-26 16:15:13.980 ,1,1,0.,12.0,0.,12.0,0.,12.0,0.,12.0
1986-01-26 16:15:25.980 ,1,1,0.,12.0,0.,12.0,0.,12.0,3.,12.0
1986-01-26 16:15:37.980 ,1,0,0.,12.0,0.,12.0,0.,12.0,0.,12.0
1986-01-26 16:15:49.980 ,1,0,0.,12.0,0.,12.0,0.,12.0,0.,12.0
1986-01-26 16:16:01.980 ,0,1,0.,12.0,0.,12.0,0.,12.0,0.,12.0
1986-01-26 16:16:13.980 ,0,1,0.,12.0,0.,12.0,0.,12.0,1.,12.0
1986-01-26 16:16:25.980 ,0,0,0.,12.0,0.,12.0,0.,12.0,0.,12.0
1986-01-26 16:16:37.980 ,0,0,0.,12.0,0.,12.0,0.,12.0,0.,12.0
1986-01-26 16:16:49.980 ,0,1,0.,12.0,0.,12.0,0.,12.0,0.,12.0
1986-01-26 16:17:01.980 ,0,1,0.,12.0,0.,12.0,0.,12.0,1.,12.0
1986-01-26 16:17:13.980 ,0,0,0.,12.0,0.,12.0,0.,12.0,0.,12.0
1986-01-26 16:17:25.980 ,0,0,0.,12.0,0.,12.0,0.,12.0,1.,12.0
1986-01-26 16:17:37.980 ,1,1,0.,12.0,0.,12.0,0.,12.0,0.,12.0
1986-01-26 16:17:49.980 ,1,1,0.,12.0,0.,12.0,0.,12.0,1.,12.0
1986-01-26 16:18:01.980 ,1,0,0.,12.0,0.,12.0,0.,12.0,0.,12.0
1986-01-26 16:18:13.980 ,1,0,0.,12.0,0.,12.0,0.,12.0,0.,12.0
1986-01-26 16:18:25.980 ,2,1,0.,12.0,0.,12.0,0.,12.0,0.,12.0
1986-01-26 16:18:37.980 ,2,1,0.,12.0,0.,12.0,0.,12.0,0.,12.0
1986-01-26 16:18:49.980 ,2,0,0.,12.0,0.,12.0,0.,12.0,1.,12.0
1986-01-26 16:19:01.980 ,2,0,0.,12.0,0.,12.0,0.,12.0,0.,12.0
1986-01-26 16:19:13.980 ,3,1,0.,12.0,0.,12.0,0.,12.0,1.,12.0
1986-01-26 16:19:25.980 ,3,1,0.,12.0,0.,12.0,0.,12.0,0.,12.0
1986-01-26 16:19:37.980 ,3,0,0.,12.0,0.,12.0,0.,12.0,2.,12.0
1986-01-26 16:19:49.980 ,3,0,0.,12.0,0.,12.0,0.,12.0,0.,12.0
1986-01-26 16:20:01.980 ,4,1,0.,12.0,0.,12.0,0.,12.0,0.,12.0
1986-01-26 16:20:13.980 ,4,1,0.,12.0,0.,12.0,0.,12.0,0.,12.0
1986-01-26 16:20:25.980 ,4,0,0.,12.0,0.,12.0,0.,12.0,0.,12.0